Location: Tierz
(42.1336°N, 0.3549°W)
Time: 12:09:53
(UTC+00:00)

Cosmos 1892 - Pass Details

Date: 29 October 2020
Orbit: 504 x 524 km, 82.5° (Epoch: 29 November)

Event Time Altitude Azimuth Distance (km) Brightness Sun altitude
Rises 18:30:25 0° 348° (NNW) 2,665 6.4 -17.5°
Reaches altitude 10° 18:32:35 10° 344° (NNW) 1,772 5.6 -17.9°
Maximum altitude 18:36:25 59° 265° (W) 608 3.3 -18.6°
Drops below altitude 10° 18:40:13 10° 186° (S) 1,757 5.5 -19.4°
Sets 18:42:21 0° 182° (S) 2,639 6.3 -19.8°
